Location: Kervinic
(48.4279°N, 4.7373°W)
Time: 02:07:43
(UTC+00:00)

STARLINK-1217 - Pass Details

Date: 09 April 2020
Orbit: 378 x 381 km, 53.0° (Epoch: 04 June)

Event Time Altitude Azimuth Distance (km) Brightness Sun altitude
Rises 19:45:21 0° 295° (WNW) 2,315 9.4 -7.7°
Reaches altitude 10° 19:47:26 10° 296° (WNW) 1,451 7.5 -8.0°
Maximum altitude 19:50:42 86° 27° (NNE) 403 2.9 -8.5°
Enters shadow 19:53:29 13° 115° (ESE) 1,263 4.8 -9.0°
